Погода в Умакао

Пуэрто-Рико     18°08′55″N   65°49′04″W
темп.,
°C
ветер,
м/с
пор.,
м/с
влажн.,
%
обл.,
%
осадки,
мм/ч
давл.,
гПа
погр.,
м
13 июня, вс
вс1323:00+24в24905 0.2 1017127
02:00+23в249114 0.6 1016114
05:00+23в239039 0.6 1016103
08:00+26в357935 0.7 1018808
11:00+27в557116 0.6 10181087
14:00+28в5674100 0.8 10171052
17:00+27в4574100 0.2 1016988
20:00+24в3689100 0.3 1017200
14 июня, пн
пн1423:00+24всв3788100 0.3 1018287
02:00+24в3791100 0.6 1016254
05:00+23в3689100 0.3 1017177
08:00+25вюв4785100 0.9 1019526
11:00+28вюв6772100 0.1 10191201
14:00+27вюв5779100 0.4 1018873
17:00+26в4784100 1.4 1017675
20:00+24в3692100 2.3 1018217
15 июня, вт
вт1523:00+25в4893100 0.5 1019363
02:00+24в489172 0.9 1017352
05:00+24в489197 0.3 1018324
08:00+25в61087100 1.1 1020906
11:00+28в6970100 0.1 10201165
14:00+28вюв6774100 0.4 10191129
17:00+27в577693 0.1 1018908
20:00+24всв378899 0.3 1019268
16 июня, ср
ср1623:00+24всв3789100 0.3 1020277
02:00+23всв4888100 0.5 1018288
05:00+23в368757 0.2 1018197
08:00+26в487935 0.4 1019694
11:00+28в686613 0.1 10191246
14:00+28в676727 0.3 10181187
17:00+27всв567359 0.0 1016880
20:00+24всв378855 0.1 1018270
17 июня, чт
чт1723:00+24всв378984 0.2 1018274
02:00+24всв4890100 0.7 1017272
05:00+23всв379090 0.6 1017223
08:00+25в478246 1.9 1018745
11:00+27всв567864 2.1 1018869
14:00+27в567953 3.9 1017853
17:00+26в578350 1.0 1016797
20:00+24в3792100 1.9 1017253